Regional Weather Roundup
Issued by NWS

Home | Current Version | Previous Version | Text Only | Print | Product List | Glossary On
Versions: 1 2 3 4 5 6 7 8 9 10 11 12 13 14 15 16 17 18 19 20 21 22 23 24 25 26 27 28 29 30 31 32 33 34 35 36 37 38 39 40 41 42 43 44 45 46 47 48 49 50
000
ASUS44 KJAN 201610
RWRMS

MISSISSIPPI HOURLY WEATHER ROUNDUP
NATIONAL WEATHER SERVICE JACKSON MS
1100 AM CDT SAT SEP 20 2014

NOTE: "FAIR: INDICATES FEW OR NO CLOUDS BELOW 12,000 FEET WITH NO
SIGNIFICANT WEATHER AND/OR OBSTRUCTIONS TO VISIBILITY.

MSZ001>002-007>008-010>013-018>021-025>028-034>036-201700-
NORTHWEST MISSISSIPPI

CITY           SKY/WX    TMP DP  RH WIND       PRES   REMARKS
CLARKSDALE     FAIR      82  70  65 CALM      30.09R
CLEVELAND      FAIR      83  71  66 SE6       30.06S
GREENWOOD      SUNNY     83  68  60 VRB3      30.07S
GREENVILLE     SUNNY     85  67  54 SE8       30.06S
GRENADA        FAIR      79  68  69 E7        30.09S
OLIVE BRANCH   SUNNY     81  73  78 S7        30.10S
OXFORD         FAIR      77  66  69 SE9       30.12S
TUNICA         SUNNY     82  68  61 S5        30.09S
$$

MSZ003>006-009-014>017-022>024-029>033-037>039-201700-
NORTHEAST MISSISSIPPI

CITY           SKY/WX    TMP DP  RH WIND       PRES   REMARKS
COLUMBUS AFB   SUNNY     80  67  63 S9        30.10F
CORINTH        FAIR      81  66  61 S8        30.12S
STARKVILLE     FAIR      79  68  69 E8        30.10S
TUPELO         SUNNY     81  67  62 S9        30.11S
$$

MSZ040-058-201700-
CENTRAL MISSISSIPPI

CITY           SKY/WX    TMP DP  RH WIND       PRES   REMARKS
JACKSON INTL   MOSUNNY   83  68  60 CALM      30.07R
JACKSON HAWKNS SUNNY     83  68  60 SE6       30.07S
MERIDIAN KEY   MOSUNNY   80  68  66 VRB7      30.08F
MERIDIAN NAS   PTSUNNY   80  67  64 NE7       30.10S
RAYMOND        FAIR      82  77  83 E3        30.07S HX  91
VICKSBURG      SUNNY     85  69  58 CALM      30.05S
$$

MSZ059>079-201700-
SOUTH MISSISSIPPI

CITY           SKY/WX    TMP DP  RH WIND       PRES   REMARKS
BROOKHAVEN     FAIR      82  70  65 E5        30.08S
COLUMBIA       FAIR      82  70  65 E8        30.04S
HATTIESBURG    SUNNY     82  69  64 E12       30.06S
MCCOMB         SUNNY     82  68  62 VRB3      30.05S
NATCHEZ        SUNNY     82  72  69 NE9       30.05S
PINE BELT      MOSUNNY  N/A N/A N/A NE7       30.07S
$$

MSZ080>082-201700-
COASTAL MISSISSIPPI

CITY           SKY/WX    TMP DP  RH WIND       PRES   REMARKS
BAY ST LOUIS   SUNNY     82  64  54 E9        30.01S
BILOXI         SUNNY     85  69  59 E13       30.02R
PASCAGOULA     SUNNY     83  67  58 NE12G18   30.02S
GULFPORT       SUNNY     83  68  60 E12       30.01S
$$



USA.gov is the U.S. government's official web portal to all federal, state and local government web resources and services.